IZ3ZOD-13 Weather Reports


Display with metric or nautical units.
time (UTC)temp
F
wind
direction
speed
MPH
gust
MPH
rain 1hr
in
rain 24hr
in
rain mn
in
humidity
%
barometer
mb
20260504034403 54 0 0.0 0.0 0.00 0.00 0.00 88 1016.3
20260504034003 54 0 0.0 0.0 0.00 0.00 0.00 88 1016.3
20260504033603 55 0 0.0 0.0 0.00 0.00 0.00 88 1016.3
20260504033416 55 0 0.0 0.0 0.00 0.00 0.00 88 1016.5
20260504032803 55 0 0.0 0.0 0.00 0.00 0.00 87 1016.4
20260504032403 55 0 0.0 0.0 0.00 0.00 0.00 87 1016.5
20260504032003 55 0 0.0 0.0 0.00 0.00 0.00 87 1016.3
20260504031603 55 0 0.0 0.0 0.00 0.00 0.00 87 1016.4
20260504031204 56 0 0.0 0.0 0.00 0.00 0.00 87 1016.5
20260504030803 56 0 0.0 0.0 0.00 0.00 0.00 87 1016.4
20260504030403 56 0 0.0 0.0 0.00 0.00 0.00 87 1016.5
20260504030003 55 0 0.0 0.0 0.00 0.00 0.00 87 1016.4
20260504025816 55 0 0.0 0.0 0.00 0.00 0.00 86 1016.5
20260504025203 56 0 0.0 0.0 0.00 0.00 0.00 86 1016.5
20260504024803 56 0 0.0 0.0 0.00 0.00 0.00 86 1016.6
20260504024613 56 0 0.0 0.0 0.00 0.00 0.00 86 1016.6
20260504024003 56 0 0.0 0.0 0.00 0.00 0.00 86 1016.6
20260504023603 56 0 0.0 0.0 0.00 0.00 0.00 86 1016.7
20260504023203 56 0 0.0 0.0 0.00 0.00 0.00 86 1016.6
20260504022803 56 0 0.0 0.0 0.00 0.00 0.00 85 1016.5
20260504022403 56 0 0.0 0.0 0.00 0.00 0.00 85 1016.7
20260504022003 56 0 0.0 0.0 0.00 0.00 0.00 85 1016.7
20260504021603 56 0 0.0 0.0 0.00 0.00 0.00 84 1016.7
20260504021203 56 0 0.0 0.0 0.00 0.00 0.00 85 1016.5
20260504020803 56 0 0.0 0.0 0.00 0.00 0.00 85 1016.6
20260504020403 56 338 0.0 2.0 0.00 0.00 0.00 85 1016.5
20260504020217 56 338 0.0 2.0 0.00 0.00 0.00 86 1016.4
20260504015603 56 338 0.0 2.0 0.00 0.00 0.00 86 1016.5
20260504015203 56 0 0.0 0.0 0.00 0.00 0.00 86 1016.4
20260504014803 56 0 0.0 0.0 0.00 0.00 0.00 86 1016.5
20260504014614 56 0 0.0 0.0 0.00 0.00 0.00 86 1016.5
20260504014003 56 0 0.0 0.0 0.00 0.00 0.00 86 1016.6
20260504013603 56 0 0.0 0.0 0.00 0.00 0.00 86 1016.6
20260504013417 56 0 0.0 0.0 0.00 0.00 0.00 86 1016.5
20260504012803 56 0 0.0 0.0 0.00 0.00 0.00 86 1016.5
20260504012403 56 0 0.0 0.0 0.00 0.00 0.00 86 1016.6
20260504012003 56 0 0.0 0.0 0.00 0.00 0.00 86 1016.6
20260504011603 56 0 0.0 0.0 0.00 0.00 0.00 86 1016.5
20260504011203 56 0 0.0 0.0 0.00 0.00 0.00 86 1016.6
20260504010803 56 0 0.0 0.0 0.00 0.00 0.00 86 1016.7
20260504010613 56 0 0.0 0.0 0.00 0.00 0.00 86 1016.7
20260504010003 56 0 0.0 0.0 0.00 0.00 0.00 86 1016.8
20260504005603 56 0 0.0 0.0 0.00 0.00 0.00 86 1016.7
20260504005203 56 0 0.0 0.0 0.00 0.00 0.00 86 1016.6
20260504004803 56 0 0.0 0.0 0.00 0.00 0.00 86 1016.6
20260504004403 56 0 0.0 0.0 0.00 0.00 0.00 85 1016.6
20260504004003 56 0 0.0 0.0 0.00 0.00 0.00 85 1016.8
20260504003603 56 0 0.0 0.0 0.00 0.00 0.00 85 1016.6
20260504003203 56 0 0.0 0.0 0.00 0.00 0.00 85 1016.8
20260504002803 56 0 0.0 0.0 0.00 0.00 0.00 85 1016.8
20260504002403 56 0 0.0 0.0 0.00 0.00 0.00 84 1016.9
20260504002003 56 0 0.0 0.0 0.00 0.00 0.00 84 1016.8
20260504001603 56 0 0.0 0.0 0.00 0.00 0.00 84 1016.9
20260504001203 56 0 0.0 0.0 0.00 0.00 0.00 84 1017.0
20260504001014 56 0 0.0 0.0 0.00 0.00 0.00 84 1016.9
20260504000403 56 0 0.0 0.0 0.00 0.00 0.00 84 1017.0
20260504000003 57 0 0.0 0.0 0.00 0.00 0.00 83 1016.9
20260503235603 57 0 0.0 0.0 0.00 0.00 0.00 83 1016.8
20260503235203 57 0 0.0 0.0 0.00 0.00 0.00 83 1016.9
20260503234803 57 0 0.0 0.0 0.00 0.00 0.00 83 1017.0
20260503234403 57 0 0.0 0.0 0.00 0.00 0.00 83 1016.9
20260503234003 57 0 0.0 0.0 0.00 0.00 0.00 83 1016.9
20260503233603 57 0 0.0 0.0 0.00 0.00 0.00 83 1017.1
20260503233203 57 0 0.0 0.0 0.00 0.00 0.00 83 1017.2
20260503232803 57 0 0.0 0.0 0.00 0.00 0.00 83 1016.8
20260503232403 57 0 0.0 0.0 0.00 0.00 0.00 83 1017.1
20260503232003 57 0 0.0 0.0 0.00 0.00 0.00 82 1017.0
20260503231603 57 0 0.0 0.0 0.00 0.00 0.00 82 1017.0
20260503231203 58 0 0.0 0.0 0.00 0.00 0.00 81 1017.0
20260503230803 58 0 0.0 0.0 0.00 0.00 0.00 81 1017.1
20260503230403 58 0 0.0 0.0 0.00 0.00 0.00 80 1017.1
20260503230214 59 0 0.0 0.0 0.00 0.00 0.00 79 1017.2
20260503225603 59 0 0.0 0.0 0.00 0.00 0.00 79 1017.2
20260503225203 59 53 0.0 2.0 0.00 0.00 0.00 79 1017.2
20260503224803 59 45 1.0 2.0 0.00 0.00 0.00 79 1017.1
20260503224403 58 41 2.0 2.0 0.00 0.00 0.00 80 1017.1
20260503224003 58 36 1.0 2.0 0.00 0.00 0.00 80 1017.3
20260503223603 58 30 1.0 2.0 0.00 0.00 0.00 80 1017.1
20260503223203 58 22 1.0 2.0 0.00 0.00 0.00 80 1017.2
20260503222803 59 11 1.0 2.0 0.00 0.00 0.00 78 1017.3
20260503222403 58 8 1.0 2.0 0.00 0.00 0.00 79 1017.0
20260503222003 58 7 1.0 2.0 0.00 0.00 0.00 79 1017.1
20260503221603 58 7 2.0 2.0 0.00 0.00 0.00 79 1017.1
20260503221416 58 10 2.0 3.0 0.00 0.00 0.00 79 1017.1
20260503220803 58 14 2.0 3.0 0.00 0.00 0.00 80 1016.9
20260503220403 58 13 1.0 2.0 0.00 0.00 0.00 79 1017.2
20260503220004 58 10 1.0 2.0 0.00 0.00 0.00 80 1017.0
20260503215813 58 10 1.0 2.0 0.00 0.00 0.00 79 1017.1
20260503215203 58 11 1.0 2.0 0.00 0.00 0.00 78 1017.1
20260503214803 59 10 1.0 2.0 0.00 0.00 0.00 77 1017.0
20260503214403 59 10 1.0 2.0 0.00 0.00 0.00 77 1017.0
20260503214003 59 7 0.0 2.0 0.00 0.00 0.00 76 1016.9
20260503213604 60 0 0.0 0.0 0.00 0.00 0.00 76 1016.9
20260503213204 60 0 0.0 0.0 0.00 0.00 0.00 76 1017.0
20260503212804 60 221 0.0 1.0 0.00 0.00 0.00 75 1016.9
20260503212404 60 221 0.0 1.0 0.00 0.00 0.00 75 1017.0
20260503212003 60 221 0.0 1.0 0.00 0.00 0.00 76 1017.1
20260503211603 60 0 0.0 0.0 0.00 0.00 0.00 76 1016.9
20260503211203 60 0 0.0 0.0 0.00 0.00 0.00 75 1016.9
20260503210803 60 0 0.0 0.0 0.00 0.00 0.00 74 1016.9
20260503210403 61 0 0.0 0.0 0.00 0.00 0.00 73 1016.9
20260503210004 61 0 0.0 0.0 0.00 0.00 0.00 73 1016.6
20260503205603 61 232 0.0 1.0 0.00 0.00 0.00 73 1017.0
20260503205203 61 226 0.0 2.0 0.00 0.00 0.00 72 1016.8
20260503204803 61 220 0.0 2.0 0.00 0.00 0.00 73 1016.8
20260503204403 61 193 0.0 1.0 0.00 0.00 0.00 73 1016.7
20260503204003 61 193 0.0 1.0 0.00 0.00 0.00 72 1016.7
20260503203603 62 193 0.0 1.0 0.00 0.00 0.00 72 1016.7
20260503203203 62 193 0.0 2.0 0.00 0.00 0.00 72 1016.8
20260503203015 62 193 1.0 2.0 0.00 0.00 0.00 71 1017.1
20260503202403 62 193 1.0 2.0 0.00 0.00 0.00 71 1016.9
20260503202003 62 194 1.0 2.0 0.00 0.00 0.00 71 1016.8
20260503201603 62 194 1.0 2.0 0.00 0.00 0.00 70 1016.8
20260503201203 62 194 1.0 2.0 0.00 0.00 0.00 70 1016.8
20260503200803 62 193 1.0 2.0 0.00 0.00 0.00 70 1016.9
20260503200403 62 192 2.0 2.0 0.00 0.00 0.00 69 1016.9
20260503200003 63 190 2.0 3.0 0.00 0.00 0.00 69 1016.9
20260503195815 63 189 2.0 3.0 0.00 0.00 0.00 69 1016.8
20260503195203 63 184 1.0 2.0 0.00 0.00 0.00 68 1017.0
20260503195014 63 183 1.0 2.0 0.00 0.00 0.00 68 1017.0
20260503194613 63 181 1.0 2.0 0.00 0.00 0.00 67 1017.0
20260503194003 64 179 2.0 2.0 0.00 0.00 0.00 66 1016.8
20260503193603 64 175 2.0 3.0 0.00 0.00 0.00 66 1016.7
20260503193416 64 172 2.0 3.0 0.00 0.00 0.00 66 1016.7
20260503192803 64 158 1.0 3.0 0.00 0.00 0.00 66 1016.9
20260503192403 65 138 1.0 2.0 0.00 0.00 0.00 66 1016.8
20260503192003 65 136 1.0 3.0 0.00 0.00 0.00 65 1016.6
20260503191603 65 144 1.0 3.0 0.00 0.00 0.00 65 1016.6
20260503191413 65 147 1.0 3.0 0.00 0.00 0.00 65 1016.7
20260503190803 65 154 1.0 2.0 0.00 0.00 0.00 66 1016.8
20260503190403 65 154 1.0 2.0 0.00 0.00 0.00 66 1016.7
20260503190003 65 149 1.0 2.0 0.00 0.00 0.00 66 1016.6
20260503185603 66 154 1.0 3.0 0.00 0.00 0.00 66 1016.6
20260503185203 66 160 2.0 3.0 0.00 0.00 0.00 66 1016.5
20260503184803 66 164 1.0 3.0 0.00 0.00 0.00 66 1016.6
20260503184403 66 167 0.0 2.0 0.00 0.00 0.00 66 1016.6
20260503184003 66 80 0.0 2.0 0.00 0.00 0.00 66 1016.5
20260503183603 66 78 1.0 3.0 0.00 0.00 0.00 66 1016.3
20260503183203 66 81 1.0 3.0 0.00 0.00 0.00 66 1016.2
20260503182803 66 112 0.0 3.0 0.00 0.00 0.00 66 1016.4
20260503182403 67 164 1.0 3.0 0.00 0.00 0.00 65 1016.4
20260503182004 67 166 1.0 3.0 0.00 0.00 0.00 65 1016.4
20260503181814 67 166 1.0 3.0 0.00 0.00 0.00 65 1016.3
20260503181203 68 118 0.0 2.0 0.00 0.00 0.00 63 1016.4
20260503180803 68 108 1.0 4.0 0.00 0.00 0.00 62 1016.5
20260503180403 69 108 1.0 4.0 0.00 0.00 0.00 61 1016.4
20260503180004 69 96 2.0 4.0 0.00 0.00 0.00 61 1016.3
20260503175603 69 96 2.0 4.0 0.00 0.00 0.00 60 1016.2
20260503175203 69 93 3.0 8.0 0.00 0.00 0.00 59 1016.2
20260503175015 70 95 3.0 8.0 0.00 0.00 0.00 59 1016.3
20260503174403 70 97 4.0 8.0 0.00 0.00 0.00 57 1016.4
20260503174003 71 92 3.0 5.0 0.00 0.00 0.00 57 1016.2
20260503173603 71 90 3.0 7.0 0.00 0.00 0.00 56 1016.2
20260503173203 71 92 3.0 7.0 0.00 0.00 0.00 55 1016.1
20260503172803 72 91 3.0 6.0 0.00 0.00 0.00 54 1016.1
20260503172403 72 88 3.0 7.0 0.00 0.00 0.00 52 1016.2
20260503172003 72 84 3.0 7.0 0.00 0.00 0.00 52 1016.1
20260503171603 72 86 3.0 9.0 0.00 0.00 0.00 52 1016.2
20260503171414 72 88 4.0 9.0 0.00 0.00 0.00 52 1016.0
20260503171013 72 95 4.0 9.0 0.00 0.00 0.00 51 1016.1
20260503170403 73 94 5.0 8.0 0.00 0.00 0.00 51 1016.2
20260503170217 73 93 5.0 7.0 0.00 0.00 0.00 51 1016.2
20260503160213 76 86 6.0 11.0 0.00 0.00 0.00 45 1016.5
20260503150803 76 47 4.0 9.0 0.00 0.00 0.00 42 1016.8
20260503150403 76 57 4.0 9.0 0.00 0.00 0.00 40 1016.8
20260503131417 82 211 1.0 4.0 0.00 0.00 0.00 28 1017.6
20260503130803 80 176 3.0 8.0 0.00 0.00 0.00 30 1017.9
20260503130403 80 153 4.0 8.0 0.00 0.00 0.00 28 1017.5
20260503110403 78 168 3.0 9.0 0.00 0.00 0.00 32 1018.6
20260503090403 74 130 2.0 4.0 0.00 0.00 0.00 38 1019.3
20260503081203 72 46 1.0 3.0 0.00 0.00 0.00 45 1019.5
20260503080803 71 51 1.0 3.0 0.00 0.00 0.00 46 1019.7
20260503080613 71 50 1.0 3.0 0.00 0.00 0.00 48 1019.6
20260503072803 69 16 1.0 3.0 0.00 0.00 0.00 53 1019.7
20260503072617 69 343 1.0 2.0 0.00 0.00 0.00 54 1019.8
20260503072003 68 355 0.0 2.0 0.00 0.00 0.00 55 1019.8
20260503071603 68 319 0.0 2.0 0.00 0.00 0.00 55 1019.6
20260503071203 67 311 0.0 2.0 0.00 0.00 0.00 55 1019.9
20260503070803 67 301 1.0 2.0 0.00 0.00 0.00 56 1019.8
20260503070614 67 329 1.0 3.0 0.00 0.00 0.00 57 1019.8
20260503054803 60 282 0.0 2.0 0.00 0.00 0.00 66 1019.5
20260503054403 59 276 0.0 2.0 0.00 0.00 0.00 66 1019.4
20260503054003 59 266 0.0 1.0 0.00 0.00 0.00 66 1019.5
20260503053603 59 261 0.0 2.0 0.00 0.00 0.00 67 1019.5
20260503053203 59 260 0.0 2.0 0.00 0.00 0.00 67 1019.6
20260503052803 58 258 0.0 1.0 0.00 0.00 0.00 68 1019.4
20260503052403 58 0 0.0 0.0 0.00 0.00 0.00 69 1019.5
20260503052213 58 0 0.0 0.0 0.00 0.00 0.00 68 1019.4
20260503051603 58 0 0.0 0.0 0.00 0.00 0.00 69 1019.4
20260503051203 57 0 0.0 0.0 0.00 0.00 0.00 70 1019.4
20260503050803 56 0 0.0 0.0 0.00 0.00 0.00 71 1019.3
20260503050615 56 0 0.0 0.0 0.00 0.00 0.00 71 1019.2
20260503050003 55 0 0.0 0.0 0.00 0.00 0.00 73 1019.4
20260503045603 54 0 0.0 0.0 0.00 0.00 0.00 73 1019.3
20260503045203 54 0 0.0 0.0 0.00 0.00 0.00 74 1019.4
20260503044803 53 0 0.0 0.0 0.00 0.00 0.00 74 1019.2
20260503044617 53 0 0.0 0.0 0.00 0.00 0.00 76 1019.4
20260503044003 52 0 0.0 0.0 0.00 0.00 0.00 76 1019.2
20260503043603 51 0 0.0 0.0 0.00 0.00 0.00 77 1019.3
20260503043203 51 0 0.0 0.0 0.00 0.00 0.00 77 1019.3
20260503042803 50 0 0.0 0.0 0.00 0.00 0.00 79 1019.3
20260503042614 50 0 0.0 0.0 0.00 0.00 0.00 79 1019.3
20260503042213 49 0 0.0 0.0 0.00 0.00 0.00 81 1019.1
20260503041603 48 0 0.0 0.0 0.00 0.00 0.00 82 1019.2
20260503041203 48 0 0.0 0.0 0.00 0.00 0.00 82 1019.3
20260503040803 48 0 0.0 0.0 0.00 0.00 0.00 83 1019.2
20260503040403 48 0 0.0 0.0 0.00 0.00 0.00 82 1019.2
20260503040004 48 0 0.0 0.0 0.00 0.00 0.00 82 1019.2
20260503035603 48 0 0.0 0.0 0.00 0.00 0.00 82 1019.4
20260503035203 48 0 0.0 0.0 0.00 0.00 0.00 82 1019.0
20260503034803 48 0 0.0 0.0 0.00 0.00 0.00 81 1019.1